FW1602 Weather Reports


time (UTC)temp
F
wind
direction
speed
knots
gust
knots
rain 1hr
in
rain 24hr
in
rain mn
in
humidity
%
barometer
mb
20260906093014 90 309 3.5 6.1 0.00 0.00 0.00 37 1015.7
20260906091514 90 324 2.6 3.5 0.00 0.00 0.00 35 1015.7
20260906090014 89 11 2.6 5.2 0.00 0.00 0.00 37 1015.9
20260906084514 89 268 2.6 4.3 0.00 0.00 0.00 38 1015.9
20260906083014 88 333 2.6 3.5 0.00 0.00 0.00 38 1016.1
20260906081514 88 288 2.6 4.3 0.00 0.00 0.00 37 1016.0
20260906080014 87 288 1.7 4.3 0.00 0.00 0.00 38 1016.2
20260906074514 87 330 1.7 3.5 0.00 0.00 0.00 38 1016.2
20260906073035 86 300 2.6 3.5 0.00 0.00 0.00 40 1016.1
20260906071514 85 332 2.6 3.5 0.00 0.00 0.00 41 1016.1
20260906070035 84 328 1.7 3.5 0.00 0.00 0.00 42 1015.9
20260906064514 83 339 1.7 3.5 0.00 0.00 0.00 44 1016.0
20260906063014 82 309 2.6 4.3 0.00 0.00 0.00 44 1016.0
20260906061514 81 319 2.6 3.5 0.00 0.00 0.00 45 1016.0
20260906060015 80 321 2.6 3.5 0.00 0.00 0.00 45 1015.9
20260906054514 79 330 1.7 3.5 0.00 0.00 0.00 46 1016.0
20260906053014 77 319 1.7 3.5 0.00 0.00 0.00 49 1016.2
20260906051514 75 327 1.7 1.7 0.00 0.00 0.00 51 1016.3
20260906050015 73 321 0.9 1.7 0.00 0.00 0.00 55 1016.7
20260906044515 69 291 0.0 1.7 0.00 0.00 0.00 59 1017.0
20260906043014 67 310 1.7 1.7 0.00 0.00 0.00 61 1017.3
20260906041514 65 284 0.9 1.7 0.00 0.00 0.00 63 1017.3
20260906040015 63 312 0.9 1.7 0.00 0.00 0.00 66 1017.5
20260906034515 63 314 0.9 1.7 0.00 0.00 0.00 65 1017.4
20260906033014 64 304 1.7 1.7 0.00 0.00 0.00 65 1017.3
20260906031515 64 315 0.9 1.7 0.00 0.00 0.00 64 1017.3
20260906030016 65 315 0.9 1.7 0.00 0.00 0.00 62 1017.0
20260906024515 64 315 1.7 1.7 0.00 0.00 0.00 64 1016.9
20260906023015 63 298 0.9 1.7 0.00 0.00 0.00 65 1016.9
20260906021515 64 0 0.0 0.0 0.00 0.00 0.00 63 1016.7
20260906020016 65 315 0.9 1.7 0.00 0.00 0.00 61 1016.7
20260906014515 65 315 0.9 1.7 0.00 0.00 0.00 60 1016.7
20260906013015 65 315 1.7 1.7 0.00 0.00 0.00 61 1016.7
20260906011515 63 310 1.7 1.7 0.00 0.00 0.00 64 1016.9
20260906010016 64 314 0.9 1.7 0.00 0.00 0.00 63 1017.0
20260906004516 63 324 0.9 1.7 0.00 0.00 0.00 65 1017.1
20260906003018 62 300 0.9 1.7 0.00 0.00 0.00 66 1017.2
20260906001516 63 304 0.9 1.7 0.00 0.00 0.00 63 1017.1
20260906000017 64 270 0.9 1.7 0.00 0.00 0.00 63 1017.0
20260905234509 64 360 0.0 1.7 0.00 0.00 0.00 61 1017.1
20260905233008 63 315 0.9 1.7 0.00 0.00 0.00 63 1017.4
20260905231530 61 332 1.7 1.7 0.00 0.00 0.00 65 1017.8
20260905230010 63 306 1.7 4.3 0.00 0.00 0.00 62 1017.6
20260905224509 63 298 0.9 1.7 0.00 0.00 0.00 62 1017.5
20260905223009 64 307 0.9 1.7 0.00 0.00 0.00 61 1017.5
20260905221530 65 294 1.7 4.3 0.00 0.00 0.00 58 1017.4
20260905220009 66 293 1.7 4.3 0.00 0.00 0.00 57 1017.3
20260905214509 65 292 1.7 1.7 0.00 0.00 0.00 57 1017.5
20260905213030 68 296 0.9 1.7 0.00 0.00 0.00 55 1017.3
20260905211509 64 304 0.9 1.7 0.00 0.00 0.00 60 1017.8
20260905210023 64 307 0.9 1.7 0.00 0.00 0.00 60 1017.9
20260905204509 65 326 2.6 4.3 0.00 0.00 0.00 58 1017.7
20260905203009 65 316 1.7 4.3 0.00 0.00 0.00 57 1017.7
20260905201510 65 327 1.7 4.3 0.00 0.00 0.00 57 1017.7
20260905200031 65 315 0.9 1.7 0.00 0.00 0.00 56 1017.6
20260905194530 65 326 1.7 1.7 0.00 0.00 0.00 56 1017.7
20260905193010 66 321 0.9 1.7 0.00 0.00 0.00 54 1017.6
20260905191531 66 270 0.0 1.7 0.00 0.00 0.00 56 1017.8
20260905190011 65 305 1.7 4.3 0.00 0.00 0.00 56 1017.8
20260905184511 66 315 0.9 1.7 0.00 0.00 0.00 54 1017.5
20260905183030 70 289 0.9 1.7 0.00 0.00 0.00 50 1017.1
20260905181510 70 0 0.0 0.0 0.00 0.00 0.00 50 1017.0
20260905180011 70 315 0.0 1.7 0.00 0.00 0.00 50 1016.8
20260905174531 72 315 1.7 4.3 0.00 0.00 0.00 48 1016.5
20260905173010 72 315 1.7 1.7 0.00 0.00 0.00 48 1016.4
20260905171531 73 338 2.6 4.3 0.00 0.00 0.00 47 1016.0
20260905170011 74 315 1.7 4.3 0.00 0.00 0.00 47 1016.1
20260905164510 74 321 1.7 4.3 0.00 0.00 0.00 48 1016.0
20260905163010 76 342 1.7 4.3 0.00 0.00 0.00 47 1015.8
20260905161510 77 341 3.5 5.2 0.00 0.00 0.00 44 1015.6
20260905160032 78 324 2.6 5.2 0.00 0.00 0.00 42 1015.7
20260905154531 78 314 3.5 5.2 0.00 0.00 0.00 41 1015.6
20260905153016 79 329 3.5 5.2 0.00 0.00 0.00 41 1015.5
20260905151510 80 302 3.5 7.0 0.00 0.00 0.00 41 1015.5
20260905150032 81 354 4.3 5.2 0.00 0.00 0.00 40 1015.4
20260905144510 82 335 4.3 5.2 0.00 0.00 0.00 39 1015.0
20260905143031 83 337 3.5 5.2 0.00 0.00 0.00 39 1014.9
20260905141532 84 310 3.5 5.2 0.00 0.00 0.00 39 1014.9
20260905140011 83 17 4.3 5.2 0.00 0.00 0.00 41 1014.9
20260905134531 85 310 3.5 5.2 0.00 0.00 0.00 39 1014.8
20260905133010 85 325 3.5 7.0 0.00 0.00 0.00 41 1014.9
20260905131532 84 30 3.5 5.2 0.00 0.00 0.00 42 1015.0
20260905130011 84 77 3.5 7.0 0.00 0.00 0.00 43 1015.0
20260905124511 84 308 4.3 7.0 0.00 0.00 0.00 43 1015.0
20260905123031 83 353 4.3 5.2 0.00 0.00 0.00 43 1015.4
20260905121511 83 77 5.2 7.0 0.00 0.00 0.00 42 1015.5
20260905120012 84 56 6.1 8.7 0.00 0.00 0.00 42 1015.5
20260905114511 85 62 3.5 6.1 0.00 0.00 0.00 42 1015.5
20260905113011 83 68 5.2 7.0 0.00 0.00 0.00 43 1015.7
20260905111511 84 46 4.3 5.2 0.00 0.00 0.00 42 1015.6
20260905110012 83 43 5.2 7.8 0.00 0.00 0.00 43 1015.7
20260905104511 82 44 6.1 8.7 0.00 0.00 0.00 45 1015.7
20260905103011 83 38 4.3 7.0 0.00 0.00 0.00 44 1015.5
20260905101511 83 53 7.0 9.6 0.00 0.00 0.00 45 1015.7
20260905100012 83 31 5.2 8.7 0.00 0.00 0.00 45 1015.8
20260905094511 83 82 6.1 7.0 0.00 0.00 0.00 44 1015.9